Location: Chiroubles
(46.1812°N, 4.6660°E)
Time: 16:16:27
(UTC+00:00)

Transit 4A - Pass Details

Date: 05 December 2020
Orbit: 864 x 980 km, 66.8° (Epoch: 26 January)

Event Time Altitude Azimuth Distance (km) Brightness Sun altitude
Rises 12:26:17 0° 326° (NNW) 3,691 10.6 20.3°
Reaches altitude 10° 12:29:48 10° 345° (NNW) 2,734 9.9 20.1°
Maximum altitude 12:34:06 18° 28° (NNE) 2,168 9.4 19.9°
Drops below altitude 10° 12:38:21 10° 70° (ENE) 2,694 10.0 19.7°
Sets 12:41:46 0° 89° (E) 3,617 10.8 19.6°
